Date,TemperatureHighF,TemperatureAvgF,TemperatureLowF,DewpointHighF,DewpointAvgF,DewpointLowF,HumidityHigh,HumidityAvg,HumidityLow,PressureMaxIn,PressureMinIn,WindSpeedMaxMPH,WindSpeedAvgMPH,GustSpeedMaxMPH,PrecipitationSumIn
2013-9-1,82.1,74.1,68.6,73.0,69.2,66.0,93,85,69,29.83,29.71,6,2,10,0.00
2013-9-2,77.3,70.5,61.3,70.0,63.8,53.0,96,80,59,29.91,29.71,12,2,13,0.00
2013-9-3,75.0,63.7,58.3,60.0,55.4,51.0,92,75,55,30.03,29.91,7,1,14,0.00
2013-9-4,80.6,66.7,54.2,64.0,58.4,53.0,97,77,49,30.10,30.01,8,2,15,0.00
2013-9-5,71.1,62.8,55.6,60.0,53.0,45.0,95,73,44,30.26,30.07,7,2,13,0.00
2013-9-6,74.4,61.1,47.7,58.0,51.8,47.0,97,74,45,30.28,30.08,5,1,8,0.00
2013-9-7,80.9,67.0,53.7,69.0,61.3,51.0,96,83,64,30.08,29.89,9,1,12,0.00
2013-9-8,73.2,67.9,58.4,67.0,61.1,53.0,95,80,57,30.06,29.92,10,2,16,0.00
2013-9-9,79.9,64.7,55.6,73.0,62.1,53.0,97,91,76,30.06,29.91,5,1,8,0.55
2013-9-10,94.1,81.5,68.7,75.0,71.3,66.0,97,73,47,30.00,29.90,12,2,14,0.00
2013-9-11,92.2,79.0,69.3,76.0,69.9,65.0,96,75,47,30.03,29.89,8,2,12,0.69
2013-9-12,79.1,69.7,57.8,69.0,62.9,50.0,97,81,50,29.95,29.83,10,2,21,0.00
2013-9-13,60.7,54.1,44.2,51.0,46.5,42.0,94,76,54,30.15,29.96,7,2,22,0.00
2013-9-14,69.3,53.5,39.8,51.0,43.3,37.0,97,73,31,30.22,30.11,6,1,9,0.00
2013-9-15,66.2,56.5,47.5,57.0,50.9,45.0,96,83,59,30.14,30.05,5,1,10,0.08
2013-9-16,63.5,56.0,46.5,55.0,51.1,45.0,98,85,58,30.37,30.13,6,1,11,0.00
2013-9-17,65.1,52.6,39.7,53.0,45.9,39.0,97,80,52,30.41,30.23,8,2,14,0.00
2013-9-18,74.1,59.0,46.9,60.0,53.6,46.0,97,84,54,30.23,30.05,9,1,9,0.00
2013-9-19,78.9,67.4,56.9,70.0,63.8,56.0,98,89,68,30.05,29.93,6,1,10,0.00
2013-9-20,82.6,72.1,68.0,71.0,68.2,66.0,96,88,67,29.93,29.73,9,3,16,0.18
2013-9-21,68.7,62.5,54.1,66.0,56.7,49.0,97,82,53,29.87,29.68,9,2,16,0.10
2013-9-22,60.9,53.9,48.6,51.0,44.8,42.0,87,72,55,30.09,29.87,8,2,14,0.00
2013-9-23,62.5,52.2,45.7,48.0,45.3,43.0,95,79,53,30.20,30.09,7,1,10,0.00
2013-9-24,65.2,54.4,48.1,53.0,49.7,47.0,96,85,63,30.15,30.00,11,1,13,0.00
2013-9-25,70.0,57.0,47.9,59.0,52.8,47.0,97,86,62,30.02,29.94,6,1,12,0.00
2013-9-26,74.7,58.2,45.1,58.0,49.8,44.0,98,78,38,30.14,29.99,7,1,11,0.01
2013-9-27,72.2,58.6,46.6,61.0,53.1,46.0,98,84,58,30.24,30.14,10,1,14,0.00
2013-9-28,76.0,62.6,50.6,60.0,55.7,50.0,98,80,51,30.20,30.02,5,1,11,0.01
2013-9-29,64.2,61.9,59.0,62.0,57.9,54.0,97,87,74,30.03,29.96,7,1,10,0.07
2013-9-30,70.8,61.6,55.5,59.0,56.8,54.0,98,86,60,30.02,29.93,8,1,12,0.00